Volver al catálogo

COSMOS 626

ActivoMilitarLEO
NORAD 7005·PAYLOAD·🇷🇺 Russia

Lanzado Dec 27, 1973 desde Baikonur Cosmodrome

Loading…

Próximos Pases (próximas 24 horas)

TLE

ActualizadoSource: Space-Track

Época: Sep 14, 2026, 08:04 UTC

1 07005U 73108A   26257.33639280 -.00000079  00000-0  61327-5 0  9998
2 07005  65.4363 226.1675 0050051   7.3845 352.7946 13.85520320667002

Sigue COSMOS 626 en tiempo real con AllMySat

Download on the App Store